• In Spain
  • List of Countries
  • For 7 days
  • Water Temperature
  • Satellite Maps
  • Weather Map
  • Weather Widgets
  • user-avatar
    Login

    Hourly Weather Sao Felix da Marinha

    Today, 24 November, Friday

    Time Temperature Precipitation Wind Pressure Humidity
    00:00 +16°C° 0.9 mm 3 mps 755 mmHg 88%
    01:00 +16°C° 0.9 mm 3 mps 755 mmHg 90%
    02:00 +16°C° 0.9 mm 3 mps 756 mmHg 92%
    03:00 +16°C° 0.4 mm 3 mps 756 mmHg 92%
    04:00 +16°C° 0.4 mm 3 mps 756 mmHg 93%
    05:00 +15°C° 0 mm 4 mps 756 mmHg 94%
    06:00 +15°C° 0.2 mm 4 mps 756 mmHg 93%
    07:00 +15°C° 0.2 mm 4 mps 756 mmHg 91%
    08:00 +15°C° 0.2 mm 5 mps 756 mmHg 89%
    09:00 +16°C° 0.2 mm 5 mps 756 mmHg 85%
    10:00 +17°C° 0.2 mm 5 mps 756 mmHg 80%
    11:00 +19°C° 0.2 mm 5 mps 756 mmHg 76%
    12:00 +19°C° 0.7 mm 5 mps 756 mmHg 77%
    13:00 +19°C° 0.7 mm 5 mps 756 mmHg 78%
    14:00 +19°C° 0.7 mm 5 mps 756 mmHg 80%
    15:00 +18°C° 0.9 mm 4 mps 756 mmHg 82%
    16:00 +18°C° 0.9 mm 4 mps 756 mmHg 85%
    17:00 +17°C° 0.9 mm 3 mps 756 mmHg 88%
    18:00 +17°C° 0.4 mm 3 mps 756 mmHg 90%
    19:00 +16°C° 0.4 mm 2 mps 757 mmHg 92%
    20:00 +16°C° 0.4 mm 2 mps 757 mmHg 93%
    21:00 +16°C° 0.2 mm 2 mps 757 mmHg 94%
    22:00 +16°C° 0.2 mm 2 mps 758 mmHg 94%
    23:00 +16°C° 0.2 mm 2 mps 758 mmHg 95%

    Tomorrow, 25 November, Saturday

    Time Temperature Precipitation Wind Pressure Humidity
    00:00 +16°C° 0.2 mm 2 mps 758 mmHg 94%
    01:00 +16°C° 0.2 mm 2 mps 758 mmHg 94%
    02:00 +16°C° 0.2 mm 2 mps 758 mmHg 94%
    03:00 +15°C° 0 mm 2 mps 759 mmHg 93%
    04:00 +14°C° 0 mm 3 mps 759 mmHg 93%
    05:00 +14°C° 0 mm 3 mps 759 mmHg 93%
    06:00 +14°C° 0 mm 3 mps 759 mmHg 91%
    07:00 +14°C° 0 mm 3 mps 759 mmHg 89%
    08:00 +14°C° 0 mm 3 mps 760 mmHg 87%
    09:00 +17°C° 0 mm 3 mps 760 mmHg 81%
    10:00 +18°C° 0 mm 3 mps 760 mmHg 76%
    11:00 +19°C° 0 mm 3 mps 761 mmHg 70%
    12:00 +19°C° 0 mm 3 mps 760 mmHg 68%
    13:00 +19°C° 0 mm 3 mps 760 mmHg 67%
    14:00 +19°C° 0 mm 3 mps 760 mmHg 65%
    15:00 +18°C° 0 mm 3 mps 760 mmHg 69%
    16:00 +17°C° 0 mm 3 mps 760 mmHg 72%
    17:00 +16°C° 0 mm 3 mps 760 mmHg 76%
    18:00 +16°C° 0 mm 3 mps 761 mmHg 75%
    19:00 +14°C° 0 mm 3 mps 761 mmHg 75%
    20:00 +14°C° 0 mm 3 mps 762 mmHg 74%
    21:00 +14°C° 0 mm 3 mps 762 mmHg 73%
    22:00 +13°C° 0 mm 3 mps 762 mmHg 71%
    23:00 +13°C° 0 mm 3 mps 762 mmHg 70%

    Day after tomorrow, 26 November, Sunday

    Time Temperature Precipitation Wind Pressure Humidity
    00:00 +13°C° 0 mm 3 mps 762 mmHg 69%
    01:00 +12°C° 0 mm 4 mps 763 mmHg 68%
    02:00 +12°C° 0 mm 4 mps 763 mmHg 67%
    03:00 +11°C° 0 mm 4 mps 763 mmHg 67%
    04:00 +11°C° 0 mm 4 mps 763 mmHg 66%
    05:00 +10°C° 0 mm 4 mps 763 mmHg 65%
    06:00 +11°C° 0 mm 4 mps 764 mmHg 63%
    07:00 +10°C° 0 mm 5 mps 764 mmHg 61%
    08:00 +10°C° 0 mm 5 mps 764 mmHg 59%
    09:00 +12°C° 0 mm 4 mps 764 mmHg 55%
    10:00 +13°C° 0 mm 4 mps 764 mmHg 52%
    11:00 +15°C° 0 mm 4 mps 764 mmHg 48%
    12:00 +15°C° 0 mm 4 mps 764 mmHg 48%
    13:00 +16°C° 0 mm 3 mps 764 mmHg 48%
    14:00 +16°C° 0 mm 3 mps 763 mmHg 48%
    15:00 +14°C° 0.1 mm 3 mps 764 mmHg 52%
    16:00 +13°C° 0.1 mm 3 mps 764 mmHg 55%
    17:00 +12°C° 0.1 mm 3 mps 764 mmHg 59%
    18:00 +12°C° 0.1 mm 3 mps 764 mmHg 60%
    19:00 +12°C° 0.1 mm 3 mps 765 mmHg 61%
    20:00 +12°C° 0.1 mm 3 mps 765 mmHg 62%
    21:00 +11°C° 0 mm 3 mps 765 mmHg 62%
    22:00 +11°C° 0 mm 3 mps 765 mmHg 62%
    23:00 +11°C° 0 mm 3 mps 765 mmHg 62%

    27 November, Monday

    Time Temperature Precipitation Wind Pressure Humidity
    00:00 +10°C° 0 mm 3 mps 764 mmHg 62%
    01:00 +10°C° 0 mm 3 mps 764 mmHg 62%
    02:00 +10°C° 0 mm 3 mps 764 mmHg 62%
    03:00 +10°C° 0 mm 3 mps 764 mmHg 62%
    04:00 +10°C° 0 mm 3 mps 764 mmHg 62%
    05:00 +10°C° 0 mm 3 mps 763 mmHg 62%
    06:00 +11°C° 0 mm 3 mps 764 mmHg 61%
    07:00 +11°C° 0 mm 3 mps 764 mmHg 61%
    08:00 +13°C° 0 mm 2 mps 764 mmHg 61%
    09:00 +14°C° 0 mm 2 mps 764 mmHg 58%
    10:00 +16°C° 0 mm 2 mps 763 mmHg 55%
    11:00 +17°C° 0 mm 2 mps 763 mmHg 53%
    12:00 +18°C° 0 mm 2 mps 762 mmHg 52%
    13:00 +20°C° 0 mm 1 mps 762 mmHg 52%
    14:00 +20°C° 0 mm 1 mps 761 mmHg 52%
    15:00 +19°C° 0 mm 1 mps 761 mmHg 56%
    16:00 +16°C° 0 mm 1 mps 761 mmHg 61%
    17:00 +15°C° 0 mm 1 mps 761 mmHg 66%
    18:00 +15°C° 0 mm 1 mps 761 mmHg 66%
    19:00 +15°C° 0 mm 2 mps 761 mmHg 66%
    20:00 +14°C° 0 mm 2 mps 761 mmHg 67%
    21:00 +14°C° 0 mm 2 mps 761 mmHg 67%
    22:00 +14°C° 0 mm 2 mps 761 mmHg 68%
    23:00 +14°C° 0 mm 1 mps 761 mmHg 68%

    28 November, Tuesday

    Time Temperature Precipitation Wind Pressure Humidity
    00:00 +14°C° 0 mm 2 mps 760 mmHg 69%
    01:00 +14°C° 0 mm 2 mps 760 mmHg 69%
    02:00 +14°C° 0 mm 2 mps 759 mmHg 70%
    03:00 +14°C° 0.1 mm 2 mps 759 mmHg 72%
    04:00 +13°C° 0.1 mm 2 mps 759 mmHg 74%
    05:00 +13°C° 0.1 mm 2 mps 758 mmHg 75%
    06:00 +14°C° 0.2 mm 2 mps 758 mmHg 76%
    07:00 +14°C° 0.2 mm 2 mps 758 mmHg 77%
    08:00 +14°C° 0.2 mm 2 mps 758 mmHg 78%
    09:00 +15°C° 0.2 mm 2 mps 758 mmHg 77%
    10:00 +15°C° 0.2 mm 2 mps 757 mmHg 75%
    11:00 +16°C° 0.2 mm 1 mps 757 mmHg 74%
    12:00 +16°C° 0.2 mm 1 mps 756 mmHg 73%
    13:00 +18°C° 0.2 mm 1 mps 755 mmHg 72%
    14:00 +18°C° 0.2 mm 1 mps 754 mmHg 71%
    15:00 +16°C° 0.8 mm 2 mps 754 mmHg 76%
    16:00 +15°C° 0.8 mm 2 mps 754 mmHg 81%
    17:00 +15°C° 0.8 mm 2 mps 754 mmHg 86%
    18:00 +14°C° 0.7 mm 2 mps 754 mmHg 87%
    19:00 +14°C° 0.7 mm 2 mps 754 mmHg 88%
    20:00 +13°C° 0.7 mm 3 mps 753 mmHg 89%
    21:00 +13°C° 0.2 mm 3 mps 753 mmHg 88%
    22:00 +13°C° 0.2 mm 3 mps 753 mmHg 88%
    23:00 +13°C° 0.2 mm 4 mps 753 mmHg 88%

    29 November, Wednesday

    Time Temperature Precipitation Wind Pressure Humidity
    00:00 +12°C° 0 mm 4 mps 752 mmHg 87%
    01:00 +12°C° 0 mm 4 mps 752 mmHg 86%
    02:00 +10°C° 0 mm 5 mps 752 mmHg 85%
    03:00 +10°C° 0 mm 5 mps 752 mmHg 84%
    04:00 +9°C° 0 mm 5 mps 752 mmHg 84%
    05:00 +9°C° 0 mm 6 mps 752 mmHg 83%
    06:00 +9°C° 0 mm 6 mps 752 mmHg 80%
    07:00 +9°C° 0 mm 6 mps 753 mmHg 78%
    08:00 +9°C° 0 mm 6 mps 753 mmHg 75%
    09:00 +10°C° 0 mm 5 mps 753 mmHg 67%
    10:00 +12°C° 0 mm 5 mps 753 mmHg 60%
    11:00 +14°C° 0 mm 5 mps 754 mmHg 52%
    12:00 +14°C° 0 mm 5 mps 754 mmHg 49%
    13:00 +14°C° 0 mm 5 mps 753 mmHg 46%
    14:00 +14°C° 0 mm 5 mps 753 mmHg 43%
    15:00 +13°C° 0 mm 5 mps 754 mmHg 47%
    16:00 +10°C° 0 mm 5 mps 755 mmHg 51%
    17:00 +9°C° 0 mm 5 mps 755 mmHg 55%
    18:00 +8°C° 0 mm 5 mps 756 mmHg 56%
    19:00 +8°C° 0 mm 4 mps 756 mmHg 58%
    20:00 +7°C° 0 mm 4 mps 757 mmHg 59%
    21:00 +7°C° 0 mm 4 mps 757 mmHg 60%
    22:00 +6°C° 0 mm 4 mps 757 mmHg 61%
    23:00 +6°C° 0 mm 4 mps 757 mmHg 61%
    Show more